Regional Weather Roundup
Issued by NWS

Home | Current Version | Previous Version | Graphics & Text | Print | Product List | Glossary Off
Versions: 1 2 3 4 5 6 7 8 9 10 11 12 13 14 15 16 17 18 19 20 21 22 23 24 25 26 27 28 29 30 31 32 33 34 35 36 37 38 39 40 41 42 43 44 45 46 47 48 49 50

000
ASUS43 KTOP 271008
RWRKS

WEATHER ROUNDUP FOR KANSAS
NATIONAL WEATHER SERVICE GOODLAND KS
400 AM CST FRI FEB 27 2015

NOTE:  "FAIR" INDICATES FEW OR NO CLOUDS BELOW 12,000 FEET WITH NO
SIGNIFICANT WEATHER AND/OR OBSTRUCTIONS TO VISIBILITY.

KSZ001>006-013>018-027>032-041>047-271100-
NORTHWEST KANSAS

CITY           SKY/WX    TMP DP  RH WIND       PRES   REMARKS
GOODLAND       LGT SNOW  11   7  84 SE15      30.28F FOG     WCI  -5
HAYS           CLOUDY     9  -8  47 E8        30.48S
HILL CITY      CLOUDY     8  -2  63 E5        30.47F
RUSSELL        CLOUDY     8   1  73 SE6       30.50S
$$

KSZ061>065-074>080-084>089-271100-
SOUTHWEST KANSAS

CITY           SKY/WX    TMP DP  RH WIND       PRES   REMARKS
DODGE CITY     CLOUDY    14  -1  51 E10       30.40F WCI   1
ELKHART          N/A     12   5  73 E13         N/A  WCI  -3
GARDEN CITY    LGT SNOW  12   9  87 SE9       30.36F FOG
GREAT BEND     CLOUDY    10  -2  56 E8        30.49F
LIBERAL        CLOUDY    14   5  67 E8        30.37R
PRATT          CLOUDY    12   1  62 E6        30.48F
$$

KSZ066>073-081>083-090>101-271100-
SOUTHEAST KANSAS

CITY           SKY/WX    TMP DP  RH WIND       PRES   REMARKS
CHANUTE        CLEAR      8   0  69 N12       30.58F WCI  -7
COFFEYVILLE    CLEAR     10   1  67 N10       30.58F WCI  -4
HUTCHINSON     CLOUDY    10   1  67 E8        30.53S
MEDICINE LODGE   N/A     14   2  58 E8        30.50F
NEWTON         PTCLDY     9  -2  61 E8        30.53S
PARSONS        CLEAR     10   1  67 N6        30.59F
WICHITA INTL   CLOUDY    11   0  61 NE9       30.54S
WICHITA JABRA  CLOUDY     9   0  67 NE9       30.54S
WICHITA MCCONL PTCLDY    10   1  65 NE6       30.53S
WINFIELD       CLOUDY    12   2  64 NE8       30.56R
$$

KSZ007>012-019>026-033>040-048>060-102>105-271100-
NORTHEAST KANSAS

CITY           SKY/WX    TMP DP  RH WIND       PRES   REMARKS
CONCORDIA      PTCLDY     4   0  83 CALM      30.54F
EMPORIA        PTCLDY     6   0  76 NE5       30.55F
LAWRENCE       CLEAR      0  -5  79 N5        30.61F
MANHATTAN      PTCLDY     7   2  80 CALM      30.58F
MARYSVILLE     CLEAR      0  -4  85 N3        30.56S
OLATHE IND     CLEAR      2  -3  80 N6        30.58F
OLATHE EXE     FAIR       5  -5  63 N6        30.56F
SALINA         PTCLDY     9   0  67 CALM      30.57F
TOPEKA BILLARD CLEAR      4  -2  76 N3        30.61F
TOPEKA FORBES  CLEAR      6  -1  73 CALM      30.58F
$$



USA.gov is the U.S. government's official web portal to all federal, state and local government web resources and services.